GW1422 Weather Reports


time (UTC)temp
C
wind
direction
speed
KPH
gust
KPH
rain 1hr
cm
rain 24hr
cm
rain mn
cm
humidity
%
barometer
mb
20260507114204 7 0 4.8 14.5 0.05 1.02 0.94 99 1013.2
20260507113205 7 0 4.8 9.7 0.00 0.97 0.89 99 1012.9
20260507112706 7 0 1.6 9.7 0.03 0.97 0.89 99 1013.2
20260507112206 7 20 3.2 14.5 0.03 0.97 0.89 99 1013.0
20260507111704 7 349 4.8 16.1 0.05 0.97 0.89 99 1012.9
20260507111204 7 338 8.0 16.1 0.05 0.97 0.89 99 1012.9
20260507110705 7 0 0.0 9.7 0.08 0.97 0.89 99 1012.9
20260507110205 7 0 0.0 16.1 0.10 0.97 0.89 99 1012.9
20260507105704 7 16 3.2 14.5 0.10 0.97 0.89 99 1012.9
20260507105204 7 344 4.8 16.1 0.13 0.97 0.89 99 1012.9
20260507104704 7 338 9.7 16.1 0.13 0.97 0.89 99 1012.9
20260507104204 7 0 1.6 14.5 0.18 0.97 0.89 99 1012.9
20260507103704 7 0 4.8 14.5 0.18 0.97 0.89 99 1012.9
20260507103204 7 23 4.8 16.1 0.18 0.97 0.89 99 1012.6
20260507102705 7 0 8.0 16.1 0.15 0.94 0.86 99 1012.5
20260507102204 7 341 8.0 14.5 0.15 0.94 0.86 99 1012.5
20260507101705 7 0 3.2 14.5 0.13 0.91 0.84 99 1012.5
20260507100704 7 15 3.2 9.7 0.10 0.89 0.81 99 1012.5
20260507100204 8 18 1.6 9.7 0.08 0.86 0.79 99 1012.2
20260507095704 7 349 4.8 14.5 0.08 0.86 0.79 99 1012.4
20260507095205 7 0 4.8 14.5 0.08 0.84 0.76 99 1012.3
20260507094704 7 0 9.7 14.5 0.08 0.84 0.76 99 1012.2
20260507094204 7 0 1.6 14.5 0.03 0.79 0.71 99 1012.1
20260507093704 7 0 1.6 22.5 0.05 0.79 0.71 99 1011.9
20260507093208 7 0 1.6 9.7 0.05 0.79 0.71 99 1011.9
20260507092708 7 23 0.0 4.8 0.08 0.79 0.71 99 1011.9
20260507092207 7 0 0.0 4.8 0.10 0.79 0.71 99 1011.9
20260507091708 7 0 0.0 4.8 0.15 0.79 0.71 99 1011.7
20260507091207 7 9 3.2 14.5 0.15 0.79 0.71 99 1011.6
20260507090708 7 23 0.0 14.5 0.15 0.79 0.71 99 1011.8
20260507090208 7 338 4.8 14.5 0.15 0.79 0.71 99 1011.9
20260507085208 7 338 1.6 16.1 0.15 0.76 0.69 99 1011.2
20260507084708 7 338 9.7 16.1 0.18 0.76 0.69 99 1011.2
20260507084208 7 0 1.6 9.7 0.20 0.76 0.69 99 1011.2
20260507083708 7 0 1.6 9.7 0.20 0.74 0.66 99 1011.2
20260507083207 7 3 3.2 9.7 0.23 0.74 0.66 99 1011.2
20260507082208 7 5 4.8 14.5 0.23 0.69 0.61 99 1011.1
20260507081708 7 347 1.6 9.7 0.18 0.64 0.56 99 1011.0
20260507081207 7 0 1.6 9.7 0.20 0.64 0.56 99 1010.9
20260507080208 7 0 3.2 14.5 0.25 0.64 0.56 99 1010.8
20260507075707 7 0 0.0 0.0 0.25 0.61 0.53 99 1010.8
20260507075208 7 0 0.0 9.7 0.30 0.61 0.53 99 1010.8
20260507074707 7 0 3.2 14.5 0.28 0.58 0.51 99 1010.8
20260507074208 7 0 0.0 14.5 0.28 0.56 0.48 99 1010.8
20260507073707 7 338 4.8 9.7 0.28 0.53 0.46 99 1010.7
20260507073208 7 0 1.6 9.7 0.28 0.51 0.43 99 1010.6
20260507072707 7 0 1.6 16.1 0.25 0.46 0.38 99 1010.8
20260507072208 7 315 4.8 16.1 0.25 0.46 0.38 99 1010.5
20260507071707 7 0 4.8 9.7 0.28 0.46 0.38 99 1010.5
20260507071207 7 0 1.6 9.7 0.30 0.43 0.36 99 1010.5
20260507070207 7 0 8.0 14.5 0.25 0.38 0.30 99 1010.5
20260507065207 7 0 3.2 14.5 0.18 0.30 0.23 99 1010.4
20260507064707 7 23 1.6 9.7 0.18 0.30 0.23 99 1010.2
20260507064207 7 0 1.6 14.5 0.15 0.28 0.20 99 1010.2
20260507063707 7 344 3.2 14.5 0.13 0.25 0.18 99 1010.0
20260507063207 7 343 6.4 14.5 0.13 0.23 0.15 99 1010.2
20260507062707 7 0 1.6 9.7 0.10 0.20 0.13 99 1009.8
20260507062208 7 338 4.8 16.1 0.10 0.23 0.13 99 1009.5
20260507061707 7 0 3.2 14.5 0.08 0.20 0.10 99 1009.8
20260507060707 7 338 4.8 16.1 0.03 0.20 0.05 99 1009.5
20260507060206 7 45 8.0 16.1 0.03 0.25 0.05 99 1009.5
20260507055707 7 327 9.7 16.1 0.03 0.28 0.05 99 1009.5
20260507055207 7 0 1.6 14.5 0.03 0.30 0.05 99 1009.3
20260507054207 7 9 4.8 22.5 0.03 0.30 0.05 99 1009.2
20260507053207 7 23 1.6 4.8 0.00 0.28 0.03 99 1009.1
20260507052207 7 23 1.6 4.8 0.00 0.30 0.03 99 1009.1
20260507051707 7 0 1.6 4.8 0.00 0.30 0.03 99 1009.1
20260507051207 7 0 1.6 4.8 0.00 0.30 0.03 99 1009.1
20260507050707 7 0 1.6 4.8 0.00 0.36 0.03 99 1009.1
20260507050207 7 0 1.6 4.8 0.00 0.36 0.03 99 1009.1
20260507045707 7 0 1.6 4.8 0.00 0.38 0.03 99 1009.1
20260507045207 7 0 1.6 16.1 0.00 0.38 0.03 99 1008.8
20260507044707 7 338 4.8 16.1 0.00 0.41 0.03 99 1008.8
20260507044206 7 338 4.8 16.1 0.00 0.41 0.03 99 1008.5
20260507043707 7 12 4.8 16.1 0.00 0.43 0.03 99 1008.8
20260507043207 7 338 6.4 35.4 0.00 0.43 0.03 99 1008.7
20260507042707 7 0 3.2 9.7 0.00 0.43 0.03 99 1008.5
20260507041207 7 11 6.4 14.5 0.00 0.46 0.03 99 1008.5
20260507040707 8 24 4.8 14.5 0.03 0.46 0.03 99 1008.5
20260507040206 8 338 4.8 14.5 0.03 0.51 0.03 99 1008.5
20260507035707 8 338 4.8 22.5 0.03 0.51 0.03 99 1008.5
20260507035206 8 1 8.0 22.5 0.03 0.51 0.03 99 1008.5
20260507034707 8 23 4.8 9.7 0.03 0.53 0.03 99 1008.5
20260507034206 8 23 4.8 16.1 0.03 0.56 0.03 99 1008.3
20260507033707 8 23 9.7 16.1 0.03 0.58 0.03 99 1008.1
20260507033207 8 339 8.0 16.1 0.03 0.61 0.03 99 1008.1
20260507032707 9 0 4.8 16.1 0.03 0.61 0.03 99 1008.1
20260507032207 9 18 3.2 16.1 0.03 0.69 0.03 98 1008.1
20260507031707 9 23 3.2 16.1 0.03 0.69 0.03 98 1008.1
20260507031206 9 0 1.6 14.5 0.03 0.69 0.03 98 1008.1
20260507030706 9 0 4.8 14.5 0.00 0.66 0.00 98 1008.1
20260507030207 9 23 1.6 4.8 0.00 0.66 0.00 98 1008.3
20260507025707 9 23 1.6 9.7 0.00 0.66 0.00 97 1008.1
20260507025207 9 0 1.6 9.7 0.00 0.69 0.00 97 1008.5
20260507024706 9 2 4.8 9.7 0.00 0.69 0.00 97 1008.1
20260507024207 9 9 1.6 4.8 0.00 0.69 0.00 97 1008.1
20260507023706 10 0 1.6 9.7 0.00 0.71 0.00 96 1008.1
20260507023208 10 0 1.6 9.7 0.00 0.71 0.00 96 1008.5
20260507022707 9 23 1.6 14.5 0.00 0.71 0.00 95 1008.1
20260507022206 10 11 4.8 14.5 0.00 0.71 0.00 95 1008.3
20260507021207 10 23 0.0 4.8 0.00 0.74 0.00 96 1008.1
20260507020706 10 23 0.0 9.7 0.00 0.74 0.00 96 1008.1
20260507020206 10 293 0.0 4.8 0.00 0.74 0.00 96 1008.1
20260507015706 10 333 0.0 9.7 0.00 0.74 0.00 96 1007.9
20260507015207 10 293 0.0 9.7 0.00 0.76 0.00 95 1008.1
20260507014707 10 315 4.8 9.7 0.00 0.76 0.00 95 1007.9
20260507014206 10 354 1.6 9.7 0.00 0.76 0.00 95 1007.8
20260507013207 10 338 1.6 16.1 0.00 0.76 0.00 94 1007.8
20260507012706 10 281 6.4 16.1 0.00 0.76 0.00 94 1008.0
20260507012206 10 293 1.6 22.5 0.00 0.81 0.00 94 1007.8
20260507011707 10 315 4.8 14.5 0.00 0.84 0.00 94 1007.8
20260507011207 10 293 4.8 22.5 0.00 0.84 0.00 94 1007.8
20260507010710 10 323 4.8 16.1 0.00 0.86 0.00 93 1007.8
20260507005706 10 338 1.6 25.7 0.00 0.91 0.00 93 1007.8
20260507005206 10 315 9.7 16.1 0.00 0.94 0.00 93 1008.1
20260507003706 10 313 4.8 14.5 0.00 1.07 0.00 94 1007.5
20260507003207 10 90 9.7 14.5 0.00 1.09 0.00 94 1007.5
20260507002707 10 338 0.0 9.7 0.00 1.09 0.00 94 1007.8
20260507001207 10 68 9.7 16.1 0.00 1.19 0.00 94 1007.8
20260507000706 10 299 11.3 22.5 0.00 1.22 0.00 94 1007.5
20260507000206 10 284 8.0 16.1 0.00 1.24 0.00 94 1007.5
20260506235706 10 23 4.8 14.5 0.00 1.27 0.00 94 1007.8
20260506235206 10 0 4.8 16.1 0.00 1.32 0.00 94 1007.5
20260506234707 10 351 3.2 14.5 0.00 1.35 0.00 94 1007.8
20260506234206 10 327 3.2 14.5 0.00 1.37 0.00 95 1007.8
20260506233706 10 293 3.2 9.7 0.00 1.40 0.00 95 1007.8
20260506233206 10 338 1.6 9.7 0.00 1.42 0.00 95 1007.5
20260506232707 10 338 0.0 9.7 0.00 1.42 0.00 95 1007.6
20260506232206 10 308 3.2 14.5 0.00 1.47 0.00 95 1007.5
20260506231706 10 315 6.4 22.5 0.00 1.50 0.00 95 1007.5
20260506231206 10 293 1.6 9.7 0.00 1.52 0.00 95 1007.5
20260506230706 10 293 4.8 16.1 0.00 1.55 0.00 95 1007.5
20260506230206 10 338 6.4 16.1 0.00 1.57 0.00 95 1007.5
20260506225706 10 315 1.6 14.5 0.00 1.65 0.00 95 1007.5
20260506225206 10 315 6.4 25.7 0.00 1.70 0.00 95 1007.1
20260506224706 10 243 8.0 25.7 0.00 1.75 0.00 95 1007.2
20260506224206 10 272 6.4 22.5 0.00 1.80 0.00 95 1007.3
20260506223706 10 296 1.6 14.5 0.00 1.88 0.00 95 1007.1
20260506223206 10 315 4.8 16.1 0.00 1.93 0.00 95 1007.1
20260506222706 10 325 1.6 14.5 0.00 2.01 0.00 96 1007.1
20260506222206 10 356 4.8 14.5 0.00 2.01 0.00 96 1007.1
20260506221706 11 45 1.6 14.5 0.00 2.01 0.00 95 1007.4
20260506221206 11 248 1.6 14.5 0.00 2.03 0.00 96 1007.1
20260506220706 11 315 4.8 14.5 0.00 2.03 0.00 96 1007.1
20260506220206 11 11 4.8 16.1 0.00 2.03 0.00 96 1006.9
20260506215706 11 294 4.8 14.5 0.00 2.06 2.03 96 1007.1
20260506215206 11 308 4.8 25.7 0.00 2.06 2.03 96 1007.0
20260506214206 10 293 3.2 14.5 0.00 2.08 2.03 96 1007.1
20260506213706 11 337 1.6 14.5 0.00 2.08 2.03 96 1007.1
20260506213206 11 7 3.2 14.5 0.00 2.08 2.03 97 1007.2
20260506212706 11 317 4.8 16.1 0.00 2.08 2.03 97 1007.1
20260506212206 11 315 4.8 16.1 0.00 2.08 2.03 97 1007.4
20260506211706 11 1 3.2 14.5 0.00 2.08 2.03 98 1007.1
20260506211206 11 299 1.6 9.7 0.00 2.08 2.03 98 1007.1
20260506210706 11 348 1.6 9.7 0.00 2.08 2.03 97 1007.1
20260506210206 11 325 4.8 14.5 0.00 2.08 2.03 97 1007.1
20260506205707 11 358 4.8 14.5 0.00 2.08 2.03 98 1007.1
20260506205206 11 293 1.6 14.5 0.00 2.08 2.03 98 1007.1
20260506204706 11 293 9.7 14.5 0.00 2.08 2.03 98 1007.1
20260506204205 11 296 3.2 16.1 0.00 2.08 2.03 98 1007.1
20260506203705 11 335 1.6 4.8 0.00 2.08 2.03 98 1007.4
20260506203206 11 0 3.2 14.5 0.00 2.08 2.03 98 1007.1
20260506202206 11 320 4.8 14.5 0.00 2.08 2.03 98 1007.4
20260506201706 11 323 3.2 14.5 0.00 2.08 2.03 98 1007.2
20260506201206 11 320 3.2 14.5 0.00 2.08 2.03 98 1007.1
20260506200706 11 325 1.6 9.7 0.00 2.08 2.03 98 1007.1
20260506200206 11 316 1.6 14.5 0.00 2.08 2.03 98 1007.1
20260506195706 11 338 1.6 14.5 0.00 2.08 2.03 98 1006.8
20260506195205 11 15 3.2 14.5 0.00 2.08 2.03 98 1007.1
20260506194706 11 355 1.6 14.5 0.00 2.08 2.03 98 1007.0
20260506193706 11 328 4.8 14.5 0.00 2.08 2.03 98 1006.9
20260506193206 11 299 3.2 14.5 0.00 2.08 2.03 98 1006.8
20260506192706 11 270 4.8 14.5 0.00 2.08 2.03 98 1006.8
20260506191705 11 293 0.0 9.7 0.03 2.08 2.03 98 1006.8
20260506191206 11 319 3.2 14.5 0.03 2.08 2.03 98 1006.8
20260506190706 11 279 4.8 16.1 0.05 2.08 2.03 98 1006.7
20260506190205 11 342 3.2 16.1 0.05 2.08 2.03 98 1006.7
20260506185705 11 293 6.4 14.5 0.08 2.08 2.03 98 1006.4
20260506185206 11 315 4.8 16.1 0.08 2.08 2.03 98 1006.4
20260506184705 11 293 1.6 16.1 0.08 2.08 2.03 98 1006.4
20260506184206 11 311 4.8 14.5 0.08 2.08 2.03 98 1006.4
20260506183205 12 324 4.8 16.1 0.08 2.08 2.03 98 1006.4
20260506182705 12 317 1.6 9.7 0.08 2.08 2.03 97 1006.4
20260506182206 12 332 0.0 9.7 0.08 2.08 2.03 97 1006.2
20260506181705 12 316 3.2 9.7 0.05 2.06 2.01 97 1006.4
20260506181205 12 315 1.6 16.1 0.05 2.06 2.01 97 1006.4
20260506180705 12 270 6.4 14.5 0.03 2.03 1.98 96 1006.4
20260506180205 12 335 4.8 9.7 0.03 2.03 1.98 95 1006.3
20260506175206 12 284 3.2 9.7 0.00 2.01 1.96 94 1006.4
20260506174705 13 315 1.6 9.7 0.00 2.01 1.96 93 1006.4
20260506174205 13 349 4.8 16.1 0.00 2.01 1.96 93 1006.4
20260506173705 13 270 8.0 14.5 0.00 2.01 1.96 93 1006.4
20260506173206 13 20 3.2 14.5 0.00 2.01 1.96 92 1006.4
20260506172705 13 356 1.6 9.7 0.00 2.01 1.96 91 1006.4
20260506171205 13 0 0.0 9.7 0.00 2.01 1.96 91 1006.4
20260506170205 13 302 3.2 14.5 0.00 2.01 1.96 90 1006.1
20260506165705 13 331 4.8 22.5 0.00 2.01 1.96 90 1006.3
20260506164705 14 311 1.6 9.7 0.00 2.01 1.96 89 1006.4
20260506164206 14 270 3.2 14.5 0.00 2.01 1.96 89 1006.4
20260506163705 14 315 4.8 16.1 0.00 2.01 1.96 89 1006.3
20260506162705 14 333 3.2 14.5 0.00 2.01 1.96 90 1006.2
20260506162205 14 283 4.8 14.5 0.00 2.01 1.96 90 1006.4
20260506161705 14 5 3.2 16.1 0.00 2.01 1.96 90 1006.2
20260506161204 14 0 6.4 16.1 0.00 2.01 1.96 89 1006.4
20260506160705 14 340 9.7 16.1 0.00 2.01 1.96 89 1006.4
20260506160205 15 270 1.6 22.5 0.00 2.01 1.96 89 1006.4
20260506154705 15 279 9.7 25.7 0.00 2.01 1.96 87 1006.7
20260506153705 15 293 1.6 25.7 0.00 2.01 1.96 87 1006.4
20260506153205 15 226 8.0 22.5 0.00 2.01 1.96 87 1006.4
20260506152705 15 331 11.3 16.1 0.00 2.01 1.96 86 1006.7
20260506152205 15 287 4.8 22.5 0.00 2.01 1.96 86 1006.4
20260506151705 15 9 14.5 25.7 0.00 2.01 1.96 85 1006.7
20260506151205 15 19 4.8 25.7 0.00 2.01 1.96 85 1006.8
20260506150705 16 343 4.8 25.7 0.00 2.01 1.96 85 1006.4
20260506150205 15 4 9.7 16.1 0.00 2.01 1.96 85 1006.6
20260506145705 16 299 8.0 25.7 0.00 2.01 1.96 84 1006.8
20260506145204 16 298 8.0 22.5 0.00 2.01 1.96 84 1006.5
20260506144705 16 307 4.8 14.5 0.00 2.01 1.96 84 1006.4
20260506144205 16 354 6.4 22.5 0.00 2.01 1.96 84 1006.6
20260506143705 16 344 8.0 16.1 0.00 2.01 1.96 83 1006.4
20260506143205 16 315 9.7 16.1 0.00 2.01 1.96 82 1007.1
20260506142705 16 272 6.4 16.1 0.00 2.01 1.96 83 1006.7
20260506142205 16 315 9.7 22.5 0.00 2.01 1.96 84 1006.8
20260506141204 17 314 8.0 22.5 0.00 2.01 1.96 83 1006.8
20260506135705 16 305 3.2 14.5 0.00 2.01 1.96 83 1006.8
20260506135206 16 336 4.8 16.1 0.00 2.01 1.96 84 1006.4
20260506134705 16 336 4.8 16.1 0.00 2.01 1.96 83 1006.8
20260506134205 16 263 3.2 22.5 0.00 2.01 1.96 83 1006.6
20260506132704 16 315 8.0 16.1 0.00 2.01 1.96 87 1006.4
20260506132205 15 309 8.0 16.1 0.00 2.01 1.96 89 1006.4
20260506131705 15 323 4.8 14.5 0.00 2.01 1.96 89 1006.4
20260506131205 15 272 3.2 16.1 0.00 2.01 1.96 89 1006.4
20260506130705 15 300 6.4 16.1 0.00 2.01 1.96 88 1006.5
20260506125204 17 23 1.6 14.5 0.00 2.01 1.96 84 1006.5
20260506123705 15 347 8.0 16.1 0.00 2.01 1.96 89 1006.4
20260506122705 15 341 3.2 9.7 0.00 2.01 1.96 91 1006.4
20260506122204 15 310 8.0 14.5 0.00 2.01 1.96 90 1006.4
20260506121704 15 17 6.4 14.5 0.00 2.01 1.96 91 1006.1
20260506120704 15 5 4.8 14.5 0.00 2.01 1.96 90 1006.1
20260506120205 16 344 1.6 9.7 0.00 2.01 1.96 89 1006.1
20260506115704 16 335 1.6 9.7 0.00 2.01 1.96 91 1005.8
20260506114705 15 23 4.8 14.5 0.00 2.01 1.96 95 1005.8